Wind_Speed
9 9 8 8 9 9 10 10 9 10 10 10 10 10 10 10 10 9 9 8 8 8 9 10 11 10 10 10 10 11 11 11 11 11 11 12 13 13 13 14 15 14 13 13 13 14 14 16 19 19 17 16 15 14 14 14 17 20 19 19 16 13 14 13 8 2 9 12 5 6 7 8 12 16 20 22 25 22 19 20 18 15 11 11 11 10 10 9
9 9 8 8 8 9 9 9 9 9 9 9 10 10 9 9 8 8 7 7 7 7 7 8 8 8 8 8 9 10 10 10 10 11 11 11 11 12 13 13 13 12 11 12 13 14 15 17 19 18 17 16 16 16 15 15 18 20 19 19 17 14 15 13 6 3 8 14 9 5 9 11 13 16 23 24 25 22 19 19 17 14 12 12 11 11 12 10
9 9 8 8 8 8 8 9 8 9 9 9 9 9 9 8 8 7 6 6 6 6 6 6 6 6 6 7 8 8 8 8 9 10 10 10 11 12 12 11 11 10 10 11 13 15 16 18 18 18 17 16 16 18 18 18 18 20 18 19 18 16 15 11 4 5 7 13 10 6 12 14 15 17 21 21 21 19 15 15 13 12 12 12 11 12 13 11
10 8 8 7 7 7 8 8 8 8 8 8 8 8 8 8 7 7 6 5 5 5 5 5 4 4 5 6 6 6 6 6 6 8 8 9 11 11 11 10 10 10 9 11 13 15 17 17 17 16 16 15 17 19 20 18 17 18 18 19 17 15 14 9 3 3 6 9 8 6 15 14 14 14 14 17 17 14 11 10 9 9 10 10 9 10 11 9
10 8 7 7 7 7 7 7 7 7 8 8 8 7 7 7 6 6 5 5 5 5 5 3 3 3 4 5 5 5 4 2 3 5 5 6 9 10 10 9 9 9 8 10 13 14 15 16 15 15 14 14 16 18 18 16 16 17 17 18 14 13 14 8 5 2 3 6 7 6 16 12 12 11 8 12 13 9 7 7 8 9 10 10 10 8 8 7
9 8 7 7 7 6 6 6 7 7 7 7 7 7 6 6 5 5 5 5 5 5 4 3 3 3 4 4 4 5 4 3 3 4 3 3 6 8 8 7 8 8 8 10 13 13 13 13 13 13 13 14 15 16 14 13 13 15 14 14 12 11 12 9 7 4 3 4 5 6 14 9 10 8 7 11 9 7 7 7 8 9 10 12 11 8 8 7
8 7 6 6 6 6 6 6 6 6 6 6 7 6 6 5 5 4 4 4 4 4 3 3 3 4 4 4 5 5 5 4 3 2 2 2 5 6 7 6 7 8 9 11 12 11 11 10 10 11 12 13 13 13 13 12 10 12 12 10 10 9 8 7 5 3 4 4 2 4 8 5 8 8 8 10 9 8 9 10 10 12 14 15 12 10 10 9
6 6 5 5 6 6 5 5 5 5 5 5 6 6 6 5 4 4 4 4 3 3 3 2 3 4 3 5 6 5 5 3 2 2 2 3 5 6 6 7 8 10 11 12 12 11 10 9 8 9 11 11 11 11 11 11 9 10 9 7 9 10 8 6 4 3 4 5 5 5 6 5 6 8 9 11 10 9 10 12 13 13 14 14 12 10 11 10
5 5 5 5 5 5 5 5 5 4 4 4 4 5 5 4 4 3 3 3 2 1 1 1 3 3 4 7 7 4 4 3 2 4 4 6 6 6 8 9 11 13 14 14 14 13 11 9 8 8 10 10 10 9 8 9 9 9 7 7 10 11 10 8 7 5 4 4 7 8 9 9 8 9 11 12 12 11 12 13 14 13 12 11 10 11 11 10
5 5 5 5 5 5 5 5 4 4 4 3 3 3 4 4 3 3 2 2 2 2 1 0 2 3 5 7 6 3 3 3 2 4 7 7 7 8 9 12 13 15 16 15 16 14 11 9 7 7 10 9 8 8 7 8 7 7 8 12 12 12 12 8 6 6 5 5 9 9 8 10 11 13 14 14 14 15 15 14 12 10 9 7 9 11 11 10
5 5 5 5 5 4 4 4 4 4 4 3 3 3 3 3 3 3 2 1 1 1 2 1 1 3 5 7 5 1 1 1 0 4 8 8 8 10 12 15 16 18 19 18 18 16 11 9 9 8 8 8 8 8 7 8 7 7 10 14 13 12 11 6 5 8 8 8 10 10 10 10 12 15 16 16 17 18 17 14 10 8 7 7 9 10 10 11
5 6 6 5 5 5 4 4 4 4 4 4 3 2 2 2 2 2 2 1 0 1 2 2 2 4 5 6 4 2 2 1 1 4 7 9 9 9 13 16 18 21 21 20 19 16 11 10 11 9 7 8 9 8 6 7 8 7 9 11 9 8 8 6 7 10 9 9 8 10 12 13 15 17 18 20 20 19 18 15 10 8 9 10 10 10 10 11
1 4 6 6 6 5 4 4 4 4 4 4 3 3 2 2 2 2 1 1 1 1 2 2 3 5 5 5 2 3 2 2 2 4 5 8 9 8 11 14 17 20 20 19 18 14 11 9 10 11 9 10 10 8 6 5 7 7 7 7 4 4 6 7 9 10 9 8 9 9 13 15 14 17 20 21 20 19 19 15 9 8 11 12 12 11 11 12
4 2 3 5 6 6 5 4 4 4 4 4 4 3 3 2 1 1 1 1 1 1 1 2 3 5 5 3 4 6 4 2 3 3 3 5 8 8 8 12 15 17 17 17 14 12 11 8 10 12 9 9 10 10 9 6 6 8 7 5 5 6 7 7 8 9 9 10 11 10 13 14 10 13 18 19 19 18 16 13 10 12 14 14 14 14 14 15
6 5 3 2 3 5 6 5 4 4 4 5 4 4 3 3 2 2 1 1 1 1 2 3 4 4 4 4 5 7 6 3 2 2 2 4 6 7 7 10 14 14 14 14 11 11 11 8 9 11 10 10 12 12 12 9 7 8 6 4 6 7 7 7 7 9 10 11 13 12 14 14 8 10 16 17 18 18 15 13 12 14 16 16 16 17 17 18
6 6 5 4 3 2 4 5 5 5 5 5 5 5 4 3 3 3 3 2 2 3 4 4 5 5 4 4 4 5 7 5 2 2 3 4 5 6 6 8 12 13 14 14 13 12 10 8 8 11 12 12 14 14 12 11 8 7 6 4 5 7 8 8 8 8 9 11 13 13 16 16 11 10 14 15 16 17 17 17 16 16 18 19 19 19 20 19
6 6 5 4 4 3 2 3 5 6 6 6 6 5 5 4 4 4 4 3 3 4 5 6 6 6 4 4 5 6 7 7 5 4 4 4 5 5 6 8 11 13 15 15 16 14 10 9 9 10 11 9 11 14 12 9 7 6 5 4 5 7 8 9 8 9 10 11 13 16 18 20 17 14 14 15 16 17 18 19 19 18 20 22 22 22 22 20
5 6 5 4 4 3 2 1 3 5 7 7 7 6 5 5 4 4 5 4 4 6 7 7 8 6 4 4 7 8 7 7 5 4 4 4 4 5 7 9 10 11 13 13 14 13 10 10 10 9 9 8 8 12 11 7 5 6 6 5 5 7 7 8 10 11 11 12 14 18 20 20 22 20 16 15 14 15 17 20 22 22 24 25 24 24 23 22
5 5 5 5 4 3 3 1 2 4 6 6 6 6 6 6 5 6 6 6 6 6 7 7 8 7 5 5 7 7 6 6 5 3 3 4 4 4 6 8 8 9 11 11 10 10 9 9 10 10 9 7 8 12 12 9 7 8 9 8 9 11 11 11 13 14 14 15 14 18 20 20 21 21 19 17 14 15 17 20 23 25 27 27 25 25 25 23
4 5 5 5 5 4 4 2 2 3 4 5 4 4 5 6 6 7 8 8 8 8 7 6 8 9 6 4 5 4 4 4 5 4 2 2 2 2 3 6 7 8 10 10 9 9 8 8 10 10 8 5 6 10 11 10 8 8 9 10 11 14 14 15 16 17 18 19 16 15 19 21 22 22 22 20 17 15 15 15 17 21 25 27 26 25 24 24
4 4 4 5 5 5 5 4 4 4 4 4 3 2 3 4 5 7 8 9 10 9 8 7 9 10 5 2 3 2 1 3 5 5 3 3 2 2 3 5 7 8 8 7 8 9 8 11 11 7 4 4 4 6 8 9 8 7 8 10 12 13 14 15 14 14 15 15 14 12 14 19 23 24 24 22 17 15 13 11 11 15 21 26 26 25 24 24
4 4 5 5 5 6 6 6 5 5 4 3 2 1 1 2 4 5 5 6 9 9 9 9 7 7 4 2 1 2 2 1 3 3 1 2 2 4 6 4 6 7 7 8 9 10 11 11 8 4 3 4 4 4 6 7 6 7 8 10 12 12 13 13 9 8 9 8 9 11 12 16 22 24 24 20 16 15 14 13 11 14 20 25 25 24 24 24
6 5 5 6 6 6 7 6 7 6 4 3 2 1 2 3 4 4 4 0 5 6 9 9 5 5 6 3 2 3 3 2 1 1 1 5 5 5 6 5 6 7 7 9 9 10 11 5 2 2 4 6 6 7 8 8 9 10 10 11 13 14 14 13 11 10 9 7 8 10 12 15 19 21 22 19 17 18 17 15 14 16 21 25 27 27 26 26
6 5 6 6 6 7 8 7 8 7 5 3 2 2 3 4 5 5 6 4 1 2 6 8 5 6 8 6 5 5 5 5 3 1 2 4 5 6 6 5 6 7 6 7 8 10 12 7 4 8 8 8 9 11 12 12 12 12 12 13 14 16 15 14 14 12 10 10 12 13 13 15 17 18 19 18 17 17 18 17 17 18 22 25 27 29 30 30
5 5 5 6 6 7 7 7 7 7 5 4 2 2 2 3 5 5 5 5 3 4 6 7 6 6 6 6 5 5 6 7 4 2 4 3 3 5 5 5 6 8 6 7 8 11 13 10 10 12 11 12 13 14 14 15 15 15 14 15 15 16 15 13 11 9 9 10 13 13 10 11 16 17 16 17 16 15 16 18 19 20 22 25 28 31 33 34
5 5 6 6 6 6 6 6 6 6 5 5 4 3 2 2 5 6 6 5 4 5 4 4 4 3 3 2 4 4 6 6 3 6 7 3 3 5 5 6 7 7 8 10 11 12 12 10 9 10 12 13 14 15 15 15 16 16 15 14 13 13 13 12 10 7 7 7 8 11 9 8 14 17 16 17 18 18 18 21 23 21 21 24 28 30 32 33
5 5 5 6 5 5 5 5 4 5 5 5 4 3 2 2 4 6 5 4 2 4 3 2 2 1 2 1 4 5 5 5 4 7 9 6 6 6 5 7 8 9 10 13 14 12 10 9 8 10 13 14 15 16 15 15 17 16 15 13 12 12 11 10 8 6 6 6 5 8 10 9 12 16 16 17 19 21 22 22 23 23 21 22 24 27 27 26
5 4 4 5 5 5 4 3 3 4 4 4 3 3 2 1 3 4 3 2 1 3 3 3 0 2 2 2 2 3 5 5 4 4 9 8 8 8 7 8 9 10 11 15 17 15 13 11 9 8 9 10 12 13 13 13 15 14 13 13 12 10 10 9 8 7 6 6 6 7 9 8 8 12 13 16 19 20 18 16 16 18 17 17 20 23 24 22
4 4 4 4 5 5 4 3 2 2 3 3 2 2 3 2 3 3 2 1 2 2 1 3 1 2 2 4 3 2 5 5 2 4 8 10 10 9 9 9 9 10 12 16 19 19 16 14 11 9 8 7 8 9 11 12 13 13 13 14 13 10 11 10 9 9 7 6 7 8 9 7 4 7 11 13 15 13 11 11 14 14 12 11 14 18 22 22
4 4 3 4 4 4 4 4 3 2 2 2 1 2 3 2 2 1 1 1 3 4 3 0 2 3 4 5 4 3 5 5 4 6 7 10 13 11 11 11 10 10 10 13 18 20 19 17 14 11 9 7 6 8 12 12 13 13 13 14 13 11 11 11 10 9 6 5 8 11 13 10 3 4 10 10 10 10 9 11 12 12 11 9 11 16 19 19
4 4 3 3 3 3 4 4 3 3 2 2 2 3 3 1 1 2 1 1 3 5 4 2 1 3 4 5 5 5 8 8 8 10 10 11 13 14 14 13 10 9 10 10 12 14 17 19 18 14 10 8 9 11 13 14 13 12 11 11 10 8 8 9 10 8 4 4 9 11 10 9 6 5 10 10 11 11 10 11 11 9 11 10 9 13 17 18
4 4 4 4 3 3 3 3 3 3 2 2 2 2 2 1 1 2 2 1 2 3 3 2 2 3 4 3 3 5 7 8 8 10 12 14 15 16 15 13 11 9 9 7 7 9 10 14 17 17 16 14 13 13 14 14 14 12 11 10 6 2 2 5 6 4 4 6 9 9 6 5 7 8 11 10 10 10 9 11 11 8 9 10 8 9 15 18
4 4 4 4 4 3 3 3 3 2 2 2 2 2 2 1 1 2 3 2 1 2 3 5 5 5 6 4 2 4 4 4 5 7 11 15 17 18 19 17 16 15 12 10 10 8 6 7 10 14 16 15 14 15 15 13 12 12 14 12 7 3 2 2 3 1 4 7 8 8 6 5 5 4 7 7 8 10 11 12 12 9 9 11 9 7 10 16
4 4 3 3 4 4 4 4 3 1 1 2 2 3 3 1 0 2 5 4 4 5 6 8 8 7 8 5 3 5 4 2 4 6 9 13 17 19 21 20 19 19 17 15 12 8 5 5 5 8 9 8 10 13 12 12 12 12 15 15 13 9 5 4 4 3 4 5 4 4 3 2 2 4 6 9 10 12 15 17 18 16 13 12 11 9 9 13
4 4 4 3 3 4 4 4 3 1 1 2 3 4 3 2 1 4 6 6 7 8 9 10 11 10 9 7 4 5 5 4 5 6 4 7 13 15 17 19 18 18 19 16 10 7 9 10 8 9 9 7 9 9 10 13 12 10 13 15 14 15 14 9 6 6 5 3 2 4 4 2 3 4 3 6 7 9 14 19 22 22 18 13 11 10 8 11
4 4 5 6 5 4 5 5 5 3 2 3 4 3 2 2 2 4 6 7 8 10 11 11 10 9 9 8 7 7 6 6 6 5 3 3 8 8 9 12 11 11 14 15 12 9 9 10 11 13 14 12 12 10 9 11 9 7 9 11 10 12 13 9 6 4 1 2 3 5 6 6 4 5 3 6 7 7 8 11 15 17 18 16 12 11 11 12
5 5 7 9 10 9 7 7 6 5 3 2 3 4 2 1 1 3 5 6 7 10 11 11 9 9 9 9 10 11 11 9 6 6 5 3 4 6 6 6 5 6 7 9 14 14 12 13 13 14 14 13 12 11 10 10 10 9 10 9 8 8 8 6 2 1 2 1 4 6 8 9 7 6 6 10 10 8 6 4 5 6 10 14 16 17 18 17
5 6 7 9 11 12 11 10 9 7 3 2 4 4 3 1 1 3 6 6 7 9 11 11 9 8 8 9 12 15 15 13 10 9 9 6 5 6 8 8 8 8 8 8 11 12 12 14 14 15 15 13 12 13 12 11 10 10 9 8 8 7 6 5 2 0 1 1 2 4 8 11 12 12 12 13 13 13 10 6 3 2 3 6 11 16 19 18
6 7 8 8 9 10 11 12 10 7 3 4 6 4 4 3 2 4 6 7 8 9 10 10 8 7 8 10 13 15 16 16 14 12 10 7 6 6 9 12 9 6 7 8 9 10 11 12 11 13 15 14 13 13 12 11 10 7 6 6 5 3 4 6 5 4 3 3 2 3 4 7 13 16 15 16 16 14 12 10 9 7 5 4 5 7 12 15
7 9 10 9 8 8 9 10 9 7 5 6 7 6 5 6 5 4 5 7 8 8 9 10 10 10 11 11 12 14 15 15 14 13 10 8 10 10 10 11 9 6 6 6 7 7 9 11 10 10 13 13 12 10 11 12 12 10 9 9 9 8 7 8 10 9 5 3 2 2 3 4 9 12 13 14 13 10 10 10 10 9 8 8 8 8 8 11
9 10 11 10 9 8 8 9 10 8 8 9 10 9 9 9 8 7 6 7 8 10 12 12 12 12 13 12 12 13 14 15 15 14 12 10 10 11 10 11 11 11 9 8 8 9 8 9 11 11 12 13 11 11 11 11 12 13 15 17 19 17 11 6 7 10 10 8 4 3 2 4 11 12 10 9 8 8 8 8 9 9 10 10 11 11 12 12
9 10 11 11 10 9 9 9 10 10 10 11 12 12 12 12 12 12 11 11 12 13 14 14 13 13 13 13 13 14 15 16 16 16 13 11 11 12 13 14 14 14 13 13 13 14 13 12 13 14 14 14 13 13 14 14 14 15 16 18 19 18 14 8 5 6 10 12 9 3 2 5 14 14 9 7 8 8 8 8 9 10 11 11 12 13 14 14
10 10 12 12 11 10 9 10 10 11 11 12 13 14 15 15 16 16 17 16 16 16 15 14 14 13 13 14 14 15 16 16 16 18 17 16 18 18 16 14 14 15 15 14 13 13 13 11 11 12 12 13 14 15 17 17 17 17 15 13 12 13 12 12 10 8 8 11 9 4 1 7 16 16 12 10 9 8 7 8 9 11 11 11 12 12 12 14
12 11 12 13 12 10 11 12 12 13 13 13 15 15 16 17 17 18 18 17 17 18 17 16 16 16 16 16 16 17 17 16 14 15 16 17 17 18 17 15 14 14 14 13 11 12 11 10 10 8 7 8 9 10 13 16 16 15 12 10 10 10 9 8 9 9 8 10 11 7 3 9 20 18 15 13 9 6 8 10 11 12 13 13 14 13 13 13
12 11 10 12 12 11 12 14 15 16 16 17 16 15 16 16 17 18 19 19 19 19 18 16 16 16 17 18 19 18 18 17 15 14 15 17 18 18 18 17 16 16 15 14 14 15 14 13 11 8 5 5 5 7 10 13 15 15 14 12 11 11 10 8 9 8 6 6 9 10 5 10 22 17 11 12 10 10 13 14 15 16 17 17 18 19 19 19
12 11 10 11 12 12 14 16 17 18 18 18 17 17 18 18 19 20 20 18 17 16 16 17 17 17 18 19 20 20 18 17 16 16 16 18 20 22 21 20 20 20 17 15 15 14 14 14 13 11 10 10 10 10 11 13 16 18 18 17 17 15 15 15 14 12 11 12 15 19 14 11 17 16 14 14 15 17 18 17 18 19 20 21 21 23 24 25
14 13 12 11 11 11 12 14 15 16 17 19 19 19 20 21 22 22 18 15 14 14 15 18 19 19 20 20 19 20 19 18 17 17 18 19 21 23 23 24 24 23 20 17 15 14 15 16 15 15 15 15 14 13 12 13 16 19 20 20 20 18 19 19 17 16 15 13 19 24 22 21 24 24 21 21 23 24 24 23 22 23 24 24 25 26 27 28
15 14 14 13 13 13 13 14 15 16 19 20 19 19 21 21 21 19 16 15 14 14 14 17 18 18 18 19 18 18 18 17 17 18 18 20 21 22 23 23 23 23 22 19 15 14 16 16 17 18 19 19 19 18 16 16 17 18 19 20 20 19 21 21 21 21 18 16 22 26 23 25 28 25 23 25 26 26 27 28 28 28 29 29 29 29 30 31
15 14 15 15 15 15 16 17 17 18 19 20 18 18 19 19 18 17 15 15 15 15 15 16 16 16 16 16 16 16 16 16 16 17 19 21 22 23 24 23 22 21 21 20 18 16 16 16 16 17 19 21 21 20 19 20 21 21 21 21 20 20 22 23 24 25 24 25 28 28 26 29 29 25 24 25 25 25 27 29 29 28 27 27 28 29 30 30
15 14 15 15 15 16 16 17 18 18 19 18 17 17 18 18 17 16 15 15 15 15 16 16 16 16 16 16 17 18 18 18 17 18 20 21 22 23 23 23 24 24 23 23 22 20 18 16 14 15 18 21 20 18 18 19 21 23 23 22 21 20 21 24 27 28 28 30 30 27 27 30 28 25 24 23 23 23 22 22 22 20 19 20 22 23 24 25
15 14 15 14 15 15 15 16 17 17 18 19 18 18 18 17 17 15 14 14 14 15 17 17 17 17 17 17 17 18 19 20 21 21 22 22 22 22 22 22 24 27 27 25 24 24 22 20 19 17 19 24 23 20 21 23 26 30 30 28 26 25 25 27 29 29 29 29 28 26 29 30 27 25 23 19 17 16 13 12 13 14 15 17 18 20 21 23
15 15 15 14 14 15 15 16 17 17 17 18 18 19 19 18 17 15 13 13 13 15 17 17 17 17 17 18 19 19 20 21 22 23 25 25 24 24 23 24 24 25 27 27 26 26 24 24 24 20 20 27 26 20 20 22 22 24 27 24 22 23 25 27 29 30 30 29 28 27 27 25 21 19 17 13 12 11 11 12 13 14 16 19 21 23 24 26
Wind_Direction
292 293 298 303 303 307 311 309 307 308 306 306 305 302 296 290 285 280 277 274 270 266 264 260 255 254 251 248 245 243 242 239 236 233 232 234 233 232 233 234 234 233 232 230 227 217 205 206 212 212 209 205 205 204 201 207 211 214 218 219 219 206 189 187 184 19 13 24 13 210 191 210 208 186 185 192 197 209 221 211 207 207 195 190 194 189 191 195
285 286 291 298 302 306 313 311 307 309 308 310 310 306 300 294 289 283 279 277 273 266 262 259 257 255 250 246 241 240 239 237 235 231 231 232 228 226 227 228 228 226 227 224 219 212 203 206 210 208 205 199 201 201 201 208 213 215 218 221 221 204 187 185 180 38 22 21 11 206 181 195 200 179 181 191 195 205 222 212 203 205 204 206 199 183 186 190
279 280 284 292 298 302 310 311 307 311 313 316 316 311 305 297 291 286 282 278 274 267 260 258 256 252 245 240 237 238 237 235 236 234 234 232 225 224 224 225 223 217 219 221 216 206 201 206 208 206 203 198 201 201 202 209 214 217 219 224 224 209 193 186 168 57 26 17 19 195 178 175 182 176 185 197 201 207 224 225 217 216 220 220 203 189 192 187
271 274 277 283 292 299 309 314 310 311 315 319 318 317 312 304 294 286 282 275 268 261 257 257 253 245 235 229 229 227 226 233 236 235 238 236 228 223 221 219 215 207 211 219 213 204 203 206 206 205 202 200 204 204 207 208 211 219 225 229 226 213 198 183 185 41 14 9 24 186 184 176 176 177 196 205 204 210 225 236 247 250 246 239 224 211 203 196
261 267 273 276 285 296 306 315 313 309 314 319 319 320 319 314 304 290 282 270 262 257 255 254 243 228 220 215 213 205 204 215 223 225 233 238 230 223 218 209 203 196 200 211 208 203 203 204 205 205 200 202 206 207 208 207 213 219 227 234 225 214 205 191 216 255 342 0 27 180 185 179 176 181 211 211 215 238 251 251 254 261 265 261 252 239 224 222
250 258 269 273 279 289 300 311 314 309 311 318 319 320 321 321 317 305 289 274 264 262 256 246 223 210 209 200 189 177 163 152 174 200 215 234 225 217 213 204 191 182 189 202 200 196 196 200 201 201 201 205 208 206 202 202 216 220 227 235 220 216 217 205 216 240 297 340 26 175 178 174 187 196 215 213 234 268 273 268 256 261 266 264 263 264 262 254
240 249 264 270 274 281 290 303 313 311 308 315 319 320 322 324 325 318 305 290 279 272 258 241 216 204 200 176 163 157 153 158 164 177 198 225 213 202 200 197 183 173 183 188 186 186 184 188 193 200 202 200 203 197 192 197 214 222 222 218 207 219 224 205 215 243 268 274 328 195 184 188 205 208 213 220 242 256 260 266 263 266 264 263 267 271 272 263
230 239 255 264 268 273 279 290 305 310 305 309 317 322 323 324 329 327 321 313 305 293 264 237 211 202 184 159 151 145 144 145 154 172 190 208 199 183 176 178 176 171 175 173 169 168 166 170 177 191 190 187 194 186 186 200 214 224 215 204 211 218 214 210 237 242 224 237 249 244 250 258 221 216 226 230 238 244 256 261 257 257 254 259 264 263 263 258
223 232 245 255 262 266 272 280 292 306 303 300 310 321 324 325 326 327 333 339 348 341 285 232 209 195 169 161 153 142 141 126 146 172 174 187 182 170 170 168 167 169 168 159 150 147 151 159 163 185 189 185 193 188 194 214 225 233 238 256 241 226 227 232 251 249 200 217 249 255 263 267 252 238 235 232 235 243 250 252 253 252 249 252 254 257 260 258
218 227 239 249 257 263 266 272 279 295 300 292 294 310 324 324 320 320 334 359 31 36 31 146 198 178 164 165 157 154 163 118 124 164 158 163 159 156 163 160 160 162 157 146 143 147 150 162 180 201 199 197 203 201 210 229 243 255 273 283 265 247 249 243 239 234 197 215 246 256 264 269 264 250 239 236 242 249 249 249 252 248 243 244 251 258 258 259
216 225 235 245 253 259 262 266 270 285 295 291 284 290 315 322 320 313 317 356 53 63 62 96 165 163 161 162 148 125 203 132 75 172 150 137 137 149 157 156 155 153 150 149 154 159 158 171 194 199 200 211 211 207 223 246 259 276 286 285 274 255 247 227 203 202 202 231 253 264 272 275 269 258 250 247 248 250 249 253 254 238 224 232 251 256 252 257
226 227 234 242 249 255 261 264 265 274 287 292 285 275 295 315 321 307 301 317 225 109 101 122 129 139 148 155 143 21 308 268 259 193 151 123 121 145 158 158 157 154 154 158 162 166 172 186 195 187 198 218 209 207 227 253 261 275 283 280 277 256 232 209 198 202 218 247 264 273 274 275 273 264 251 243 243 245 247 252 249 227 220 229 239 244 248 257
266 237 239 242 246 252 259 265 267 269 277 287 286 273 271 288 310 304 296 284 242 157 146 137 116 121 128 137 115 26 338 221 208 197 153 122 117 131 157 162 161 160 160 162 165 174 183 196 200 190 202 218 216 219 222 238 254 264 274 272 269 231 208 198 199 216 238 254 265 275 277 275 273 263 246 237 239 241 244 244 238 235 233 229 229 239 253 265
27 345 263 251 249 250 253 261 267 268 272 278 280 274 261 252 254 272 272 250 197 167 151 114 100 112 107 78 62 66 84 171 199 183 147 127 120 124 155 167 166 166 166 168 175 185 191 208 209 203 220 237 237 239 235 241 262 275 275 246 233 219 198 192 204 235 253 257 263 274 277 269 265 265 252 241 243 243 244 242 240 248 243 234 235 244 258 272
30 27 15 320 272 257 252 254 259 264 267 266 269 269 264 254 239 225 215 198 149 129 117 99 98 106 94 57 53 69 70 75 184 184 161 147 134 136 157 174 177 178 177 181 192 196 202 226 228 232 255 258 255 254 250 257 274 285 273 219 227 234 216 212 230 254 264 268 270 273 273 260 243 263 262 250 247 248 250 252 251 251 247 244 246 252 261 271
25 26 26 18 359 305 265 251 251 256 260 262 265 267 267 266 253 236 213 184 149 135 126 117 115 108 102 93 73 65 56 57 115 157 162 164 160 155 161 180 189 194 196 200 209 210 220 249 256 263 267 259 259 256 258 270 273 270 263 245 247 255 254 250 254 273 285 285 275 268 265 256 246 256 260 256 254 255 256 257 257 254 251 252 254 257 261 266
16 20 22 24 23 5 321 256 248 250 256 261 264 267 269 272 266 255 234 196 167 154 146 142 141 131 123 122 103 89 73 67 92 129 149 173 180 171 173 182 191 203 207 210 216 219 238 262 259 266 268 264 256 248 255 274 271 259 273 295 286 284 287 279 283 293 296 291 274 266 260 256 259 260 254 257 259 258 258 258 257 257 255 255 254 256 259 262
8 12 15 19 21 15 13 288 243 248 257 259 262 266 267 269 269 262 248 218 191 174 167 167 163 155 149 139 121 104 82 68 73 111 142 171 194 197 196 192 196 207 207 210 217 224 241 255 256 261 260 259 243 233 241 260 281 296 308 319 312 313 316 310 311 305 300 297 274 262 261 258 259 258 251 252 257 260 265 264 261 259 258 256 254 255 258 259
3 7 9 12 15 15 15 354 248 256 265 269 270 270 269 271 266 257 251 229 207 193 188 188 177 166 161 147 133 114 88 73 59 69 131 166 195 215 217 210 214 218 211 205 209 221 237 247 256 258 252 251 236 227 236 256 282 306 312 310 304 308 312 310 313 309 306 310 286 256 257 258 251 243 238 239 253 271 275 270 261 255 252 252 253 255 257 259
4 5 6 9 13 13 9 358 304 285 284 290 293 289 281 277 272 262 252 235 219 206 197 197 184 174 167 153 156 147 126 103 67 50 73 140 176 217 238 227 228 231 222 209 203 216 234 245 250 253 250 240 228 227 237 257 272 295 309 307 299 302 306 305 309 309 305 311 304 261 248 252 242 230 230 238 252 266 271 269 258 248 245 246 249 252 255 259
12 6 8 10 12 12 9 3 345 327 310 309 322 325 294 284 294 285 260 236 227 218 201 194 187 185 184 162 186 218 193 123 91 76 59 50 52 348 307 256 244 245 235 226 225 226 238 245 242 240 235 211 218 236 240 249 266 291 304 304 300 300 306 309 314 317 310 309 307 281 258 254 244 233 234 240 248 251 252 256 253 246 243 243 247 253 258 262
25 16 15 13 12 10 10 12 7 357 339 333 342 2 350 325 326 319 287 235 228 224 204 194 185 190 205 184 220 311 336 48 109 110 62 346 325 333 329 289 253 252 246 248 253 250 251 250 235 210 210 222 241 264 251 247 262 283 294 295 296 300 308 313 315 318 312 298 291 287 272 255 245 240 238 238 242 243 244 246 244 247 248 249 255 262 265 268
27 24 23 21 23 20 22 31 31 24 18 33 60 89 74 33 22 17 10 261 223 230 209 206 199 187 193 193 251 295 326 310 277 129 290 292 285 291 306 296 259 249 241 244 257 262 251 232 123 199 240 252 255 265 266 262 264 272 282 284 289 298 305 308 304 299 291 275 278 283 268 249 239 239 240 239 241 238 237 240 242 249 255 261 268 272 272 272
17 18 19 20 25 27 35 45 45 45 49 64 78 91 95 72 63 54 40 57 138 172 179 192 186 173 184 201 241 270 286 274 278 294 258 282 287 269 285 301 261 241 237 242 253 261 245 227 283 286 276 270 264 266 264 260 263 265 270 275 284 295 298 298 299 294 279 262 266 276 274 260 246 242 243 244 246 242 237 241 245 251 260 266 269 270 270 269
357 0 4 8 17 22 33 42 43 49 53 59 70 67 74 70 60 56 44 49 91 125 144 161 153 153 180 207 232 261 278 272 273 255 230 271 296 262 270 287 260 246 256 268 267 267 257 253 279 284 279 273 268 268 261 257 259 256 260 274 284 292 294 293 291 285 272 256 253 259 271 271 260 255 249 249 256 255 248 249 250 255 264 267 266 265 265 265
338 345 347 353 3 8 19 33 38 41 43 53 68 64 65 65 50 47 41 46 104 143 142 157 166 160 168 217 255 262 283 293 276 223 222 254 256 240 255 258 263 269 268 275 276 272 268 268 279 279 277 276 268 264 261 257 254 253 261 275 286 293 295 294 289 274 263 257 244 238 236 254 264 264 260 262 268 266 263 260 255 258 267 267 264 264 264 263
323 332 334 338 348 353 1 19 31 29 31 47 62 67 80 84 47 45 44 42 109 155 160 191 204 150 102 4 283 259 272 299 284 220 214 235 232 229 258 257 269 284 273 268 267 264 263 267 277 276 274 274 266 260 259 252 247 253 266 279 290 294 295 296 289 269 259 259 245 227 231 247 263 266 270 276 280 280 278 270 261 262 265 262 262 264 266 268
317 322 325 328 331 334 340 349 8 20 25 32 46 50 48 41 30 36 47 41 103 149 191 212 209 51 51 1 287 255 277 295 303 220 203 220 233 244 271 276 281 284 270 262 259 258 260 264 279 286 280 281 274 263 256 247 247 258 271 280 285 284 287 291 277 264 262 253 240 228 232 249 263 271 285 290 288 290 288 283 283 275 262 260 264 262 264 270
321 322 324 322 315 316 316 304 319 359 16 21 34 25 6 13 17 14 33 58 91 93 211 217 268 320 310 312 286 271 297 293 269 215 210 221 231 247 272 282 288 282 264 255 255 256 259 262 274 285 286 300 299 269 247 246 256 267 271 271 272 270 277 280 265 261 257 231 239 248 247 249 253 278 299 304 297 298 294 301 308 282 261 277 276 262 259 261
335 330 329 319 306 306 305 296 305 329 355 6 358 325 331 353 10 355 58 57 43 34 23 34 340 323 314 304 287 290 309 297 247 241 245 234 233 245 261 270 281 283 272 261 257 256 256 259 264 268 268 274 282 254 241 251 264 268 267 264 266 268 266 263 258 262 257 235 256 269 262 248 221 287 297 310 321 318 301 311 317 278 264 301 286 260 256 252
350 346 345 333 315 303 300 300 300 300 320 328 301 306 297 273 24 14 62 6 12 33 44 64 21 352 348 316 293 302 305 296 269 253 254 249 244 245 252 262 271 282 287 281 272 263 257 257 258 259 257 250 249 247 247 257 263 264 262 260 264 260 249 250 255 255 244 255 270 271 261 233 208 273 293 305 316 307 295 314 327 294 274 299 292 256 244 240
355 0 359 346 330 308 297 289 274 269 280 281 291 308 269 192 27 1 1 346 1 35 47 30 341 330 345 336 308 313 302 296 288 266 259 260 256 252 254 262 269 279 290 292 296 290 273 264 258 254 257 255 250 251 254 257 258 253 245 244 253 252 236 253 256 244 233 259 271 265 256 233 236 281 301 301 299 293 298 314 319 307 280 283 287 254 231 228
349 358 359 353 342 324 309 288 274 264 259 262 276 282 264 156 68 351 359 14 17 359 341 326 309 303 318 324 329 324 303 299 299 274 262 262 260 257 256 260 265 271 277 280 289 299 296 282 260 247 252 255 251 251 251 255 259 252 242 235 223 159 83 269 260 294 268 271 275 259 254 259 255 312 331 314 306 307 312 313 306 298 280 269 276 280 250 231
335 336 338 349 342 325 317 306 298 292 261 269 271 268 259 192 125 347 342 326 308 310 311 311 302 293 304 310 321 318 304 320 316 286 265 256 256 256 254 257 265 267 267 270 275 276 272 278 256 236 241 244 246 248 253 267 275 270 257 242 224 211 213 235 231 225 245 273 286 244 230 231 151 66 360 328 319 309 304 302 297 292 287 275 266 274 279 254
319 315 309 313 319 312 303 292 286 264 253 267 271 273 260 225 291 335 325 307 302 299 299 311 307 291 289 292 295 304 305 329 330 319 303 257 255 259 258 261 267 265 260 259 259 255 255 260 252 242 238 235 242 246 258 274 277 272 257 241 233 239 240 238 241 240 244 280 278 216 218 220 116 91 359 316 307 297 290 287 284 282 279 273 257 252 278 281
292 288 276 262 258 274 275 266 258 239 241 259 250 244 239 246 301 331 314 298 304 302 297 307 309 294 293 291 280 274 281 310 316 307 329 269 255 261 257 258 265 262 256 253 252 247 245 253 251 243 236 233 242 246 248 259 262 264 259 247 249 255 245 238 250 261 284 306 251 222 234 239 176 137 195 241 263 287 298 289 286 281 268 257 251 254 279 298
276 274 269 256 245 248 253 253 249 242 254 264 216 196 203 266 302 325 302 288 297 304 304 309 311 304 306 303 291 282 279 294 304 289 300 298 262 252 238 248 268 266 261 258 257 252 246 250 246 231 226 227 238 246 244 244 247 253 257 254 257 256 241 232 246 18 46 293 247 233 238 237 205 171 209 231 247 277 302 321 324 303 265 250 242 243 261 281
271 271 273 260 246 243 247 252 252 250 260 217 189 169 129 126 339 316 300 293 299 305 306 310 310 301 300 296 292 291 289 294 298 293 297 301 286 267 260 281 297 288 281 267 254 248 242 248 243 228 230 240 247 255 255 246 243 249 250 248 251 249 243 246 250 261 235 251 271 247 238 244 240 227 224 233 248 266 278 293 302 271 244 245 235 232 242 255
273 271 271 263 256 253 251 252 254 255 246 201 195 180 158 177 232 285 286 288 297 301 301 305 304 296 295 292 287 286 287 293 297 300 300 290 280 279 279 291 299 294 281 259 249 247 235 240 245 231 233 249 258 261 257 240 227 219 217 227 244 260 269 272 265 245 218 213 254 268 252 247 243 235 229 235 244 251 259 272 271 250 233 244 248 239 235 235
270 271 276 275 273 273 266 264 267 264 245 217 214 217 217 223 226 239 274 284 286 289 291 296 298 293 292 289 285 283 284 289 295 300 299 281 276 279 277 279 280 275 263 242 251 269 247 239 247 235 235 251 261 260 258 252 245 240 238 250 272 289 292 285 275 262 242 215 176 209 263 240 218 219 222 224 226 233 248 262 263 254 253 261 270 277 270 255
274 275 279 278 279 286 289 287 280 265 245 230 230 235 239 244 243 241 262 279 282 285 288 292 293 289 285 280 277 276 277 282 288 293 292 283 278 276 267 268 280 285 276 256 258 276 271 259 260 257 253 257 262 262 262 269 274 270 265 266 275 285 285 272 268 257 245 247 222 184 254 209 182 188 203 214 223 240 250 255 259 258 255 258 263 268 276 279
277 276 276 276 281 287 290 288 275 262 252 244 241 243 244 249 254 254 259 270 280 284 286 291 291 284 277 270 268 268 269 273 279 282 284 278 273 274 273 274 279 281 279 275 272 274 278 279 274 272 268 261 260 265 268 275 282 281 274 268 268 272 264 235 232 247 240 246 242 223 273 199 180 182 191 210 224 228 233 238 243 246 242 243 249 252 255 258
272 271 274 276 277 276 278 277 267 262 262 257 254 256 256 256 260 264 268 274 281 284 283 283 282 277 271 266 266 268 270 273 273 273 274 274 272 271 271 271 266 265 273 283 286 283 280 279 275 273 273 266 259 260 264 270 275 276 273 265 252 248 244 230 229 236 238 242 232 206 260 191 180 180 181 188 196 197 215 236 234 237 239 236 239 243 244 246
273 272 276 277 275 273 272 270 265 265 267 264 262 263 263 264 266 269 271 274 280 284 282 277 272 269 266 266 267 268 273 276 272 269 269 269 267 264 263 264 263 265 272 279 285 284 275 272 274 275 281 280 270 261 259 260 264 266 261 248 231 221 217 222 238 239 239 244 227 217 238 179 174 177 178 179 191 221 245 260 258 253 250 245 247 250 249 249
285 281 276 275 277 275 270 270 270 273 274 272 270 267 265 267 270 274 277 278 280 282 279 272 265 260 257 261 265 269 273 273 268 264 260 256 256 258 263 268 270 276 280 279 281 283 272 266 270 267 252 256 266 270 271 267 264 264 262 256 249 237 229 249 269 252 237 258 242 236 244 174 175 186 198 199 224 267 268 268 270 266 261 259 261 262 261 260
297 291 278 273 276 274 269 268 270 271 271 273 273 271 271 273 277 283 287 285 280 274 268 262 257 255 256 258 262 265 267 265 264 264 259 254 254 257 263 269 274 282 288 287 285 280 266 258 260 261 256 260 269 275 278 278 272 268 268 269 270 266 262 268 272 261 262 283 272 260 265 237 216 236 260 250 257 277 279 278 280 277 275 275 274 272 272 271
297 293 285 278 276 271 264 261 262 262 265 269 271 271 274 277 279 284 287 281 270 256 252 256 255 256 259 260 260 262 261 259 262 265 263 262 261 261 264 270 274 280 285 287 285 276 264 260 261 262 263 267 272 272 269 270 272 270 270 272 273 273 273 272 272 273 276 278 270 267 270 265 257 263 272 270 271 275 277 281 284 284 283 284 285 283 281 279
293 289 285 281 275 268 263 259 257 256 259 267 272 272 272 273 273 274 272 268 263 252 247 255 259 258 261 263 261 260 260 259 261 263 266 268 270 268 268 271 274 277 281 282 280 272 268 271 274 272 270 269 270 271 269 266 266 264 263 266 268 268 271 273 276 281 280 267 268 273 271 266 267 275 281 278 277 278 278 278 279 280 282 284 285 285 284 283
290 287 284 281 277 272 269 267 266 263 262 267 271 270 269 267 262 259 255 255 260 263 261 261 263 262 262 263 262 262 266 269 267 267 269 272 275 277 277 276 275 277 281 281 278 274 274 278 282 280 277 275 274 274 270 265 262 258 255 258 262 263 267 272 276 280 277 271 271 274 271 268 272 280 283 279 278 281 281 279 278 279 280 281 282 283 283 284
291 288 284 281 279 276 275 273 273 273 273 273 272 268 266 264 258 253 251 250 255 262 265 265 266 267 267 269 269 268 272 276 279 280 279 279 280 282 284 282 280 281 283 283 280 281 284 284 281 279 278 274 270 265 261 260 262 262 258 257 259 260 261 264 269 272 270 269 270 271 272 274 275 277 279 278 279 280 279 278 279 278 278 279 281 282 284 286
291 288 284 281 277 275 275 273 271 272 273 272 269 264 262 260 255 249 250 254 255 259 263 266 267 269 272 275 275 274 276 280 284 286 287 287 286 285 284 284 284 285 287 286 284 284 286 288 287 287 284 278 274 272 270 270 272 271 267 264 261 260 261 261 264 266 265 265 268 270 272 276 276 276 276 275 276 275 268 264 266 269 274 277 280 283 285 286
297 293 288 284 279 275 273 271 270 268 267 265 263 261 258 256 254 250 251 257 260 260 263 265 266 267 272 275 277 280 282 283 284 285 285 285 284 284 283 283 284 286 288 289 290 288 288 289 290 292 287 283 286 290 283 277 276 271 265 264 265 265 265 264 262 262 261 261 263 267 270 275 278 276 271 266 262 256 252 258 265 271 277 280 283 286 288 289
Height
3110 3109 3108 3108 3107 3106 3105 3104 3104 3103 3102 3102 3101 3100 3099 3099 3098 3098 3098 3098 3097 3097 3097 3097 3097 3098 3098 3099 3099 3099 3099 3099 3100 3100 3100 3100 3101 3101 3101 3102 3102 3103 3104 3105 3107 3108 3109 3109 3109 3110 3111 3112 3113 3115 3116 3117 3118 3118 3118 3118 3119 3121 3121 3121 3122 3122 3122 3121 3121 3120 3119 3120 3120 3121 3123 3125 3127 3128 3129 3129 3130 3131 3133 3133 3134 3135 3135 3136
3109 3108 3108 3107 3106 3105 3104 3104 3103 3102 3102 3101 3100 3100 3099 3098 3098 3097 3097 3097 3097 3097 3096 3096 3097 3097 3097 3098 3098 3098 3098 3098 3098 3099 3099 3099 3100 3100 3100 3100 3101 3102 3103 3104 3105 3107 3107 3108 3108 3109 3111 3112 3113 3114 3115 3116 3116 3117 3117 3117 3119 3120 3120 3120 3121 3122 3122 3121 3121 3121 3120 3121 3121 3121 3123 3124 3125 3126 3127 3128 3129 3131 3132 3132 3133 3134 3135 3136
3108 3107 3107 3106 3105 3105 3104 3103 3103 3102 3101 3101 3100 3099 3098 3098 3097 3097 3097 3097 3096 3096 3096 3096 3096 3096 3097 3097 3097 3097 3097 3097 3098 3098 3098 3098 3098 3099 3099 3100 3101 3101 3102 3103 3104 3105 3106 3107 3108 3109 3110 3112 3112 3113 3114 3114 3116 3117 3117 3117 3118 3119 3120 3120 3121 3121 3122 3122 3122 3122 3121 3122 3122 3123 3124 3124 3125 3126 3127 3128 3129 3130 3131 3131 3133 3134 3135 3136
3107 3106 3106 3105 3105 3104 3104 3103 3102 3101 3101 3100 3099 3099 3098 3097 3097 3097 3096 3096 3096 3095 3095 3096 3096 3096 3096 3096 3096 3097 3097 3097 3097 3097 3097 3098 3098 3098 3098 3099 3100 3101 3101 3103 3104 3104 3105 3106 3108 3109 3110 3111 3112 3112 3113 3114 3115 3116 3116 3116 3118 3119 3119 3120 3121 3121 3122 3122 3122 3122 3122 3123 3123 3124 3124 3124 3125 3126 3127 3128 3129 3129 3130 3131 3132 3133 3134 3136
3105 3105 3105 3105 3104 3104 3103 3102 3102 3101 3100 3100 3099 3098 3098 3097 3097 3096 3096 3095 3095 3095 3095 3096 3096 3096 3096 3096 3096 3096 3097 3097 3097 3097 3097 3097 3097 3097 3098 3098 3099 3100 3101 3102 3103 3104 3104 3106 3107 3109 3110 3111 3112 3112 3113 3115 3115 3115 3116 3117 3118 3119 3119 3120 3120 3120 3121 3122 3123 3123 3123 3123 3123 3123 3124 3124 3125 3126 3127 3128 3128 3129 3129 3130 3131 3132 3133 3135
3104 3104 3104 3104 3103 3103 3102 3102 3101 3100 3100 3099 3099 3098 3098 3097 3096 3096 3095 3095 3095 3095 3095 3096 3096 3096 3096 3096 3096 3096 3097 3097 3096 3096 3096 3096 3097 3097 3097 3098 3098 3099 3100 3102 3102 3103 3104 3106 3107 3108 3110 3111 3112 3113 3114 3115 3115 3115 3116 3116 3117 3118 3118 3119 3120 3120 3121 3122 3123 3124 3123 3123 3123 3123 3123 3124 3125 3125 3126 3126 3127 3128 3128 3129 3130 3131 3132 3134
3103 3103 3103 3103 3102 3102 3102 3101 3101 3100 3100 3099 3098 3098 3097 3097 3096 3096 3095 3095 3095 3095 3095 3095 3096 3096 3096 3096 3097 3097 3097 3097 3096 3096 3096 3096 3096 3096 3096 3097 3098 3099 3100 3102 3103 3103 3105 3106 3107 3109 3110 3111 3112 3113 3114 3115 3115 3115 3115 3116 3117 3118 3118 3118 3119 3119 3120 3121 3123 3124 3123 3123 3123 3123 3123 3123 3124 3124 3125 3125 3126 3126 3127 3127 3128 3130 3131 3132
3102 3102 3102 3102 3102 3101 3101 3101 3100 3100 3099 3099 3098 3098 3097 3097 3096 3096 3095 3095 3095 3095 3095 3095 3096 3096 3096 3097 3097 3097 3097 3097 3097 3096 3096 3096 3096 3096 3097 3097 3098 3099 3100 3102 3103 3104 3105 3107 3108 3109 3110 3111 3111 3113 3114 3114 3114 3114 3115 3115 3116 3117 3117 3117 3118 3118 3119 3120 3122 3123 3123 3123 3122 3122 3122 3122 3123 3123 3124 3124 3124 3125 3126 3126 3127 3129 3130 3131
3102 3102 3101 3101 3101 3101 3101 3100 3100 3099 3099 3098 3098 3097 3097 3096 3096 3095 3095 3095 3095 3095 3095 3095 3096 3096 3096 3097 3097 3097 3097 3097 3097 3097 3096 3096 3096 3097 3097 3098 3099 3100 3101 3102 3103 3104 3106 3107 3108 3108 3109 3110 3111 3112 3112 3113 3113 3113 3114 3114 3114 3114 3115 3116 3116 3117 3118 3119 3121 3122 3122 3122 3122 3122 3122 3122 3122 3122 3123 3123 3124 3124 3125 3126 3127 3127 3128 3130
3101 3101 3101 3101 3100 3100 3100 3100 3099 3099 3098 3098 3097 3097 3097 3096 3096 3095 3095 3095 3095 3095 3095 3095 3095 3096 3096 3097 3097 3097 3097 3097 3097 3097 3097 3097 3097 3097 3098 3098 3099 3100 3101 3102 3103 3104 3105 3106 3107 3107 3108 3109 3110 3111 3111 3112 3112 3113 3113 3113 3112 3113 3114 3114 3115 3116 3117 3118 3120 3121 3120 3121 3121 3121 3121 3121 3121 3121 3121 3122 3123 3123 3124 3125 3125 3126 3127 3129
3101 3101 3100 3100 3100 3100 3099 3099 3099 3098 3098 3097 3097 3097 3096 3096 3096 3095 3095 3095 3095 3095 3095 3095 3095 3096 3097 3097 3097 3098 3098 3097 3098 3098 3097 3097 3097 3098 3098 3099 3099 3100 3101 3102 3103 3104 3105 3106 3106 3107 3108 3108 3109 3110 3110 3111 3111 3112 3112 3112 3111 3111 3112 3113 3114 3116 3117 3118 3119 3119 3119 3119 3119 3119 3120 3120 3120 3120 3120 3120 3121 3122 3123 3124 3124 3125 3126 3127
3100 3100 3100 3100 3100 3099 3099 3099 3098 3098 3097 3097 3097 3096 3096 3096 3096 3095 3095 3095 3095 3095 3095 3095 3096 3096 3097 3097 3098 3098 3098 3098 3098 3099 3098 3097 3098 3098 3099 3099 3099 3100 3101 3101 3103 3104 3105 3105 3106 3107 3107 3107 3108 3109 3110 3110 3111 3111 3111 3111 3110 3110 3111 3112 3114 3115 3116 3117 3118 3118 3118 3118 3118 3117 3117 3118 3118 3119 3119 3119 3120 3121 3122 3123 3124 3125 3125 3126
3100 3100 3100 3099 3099 3099 3099 3098 3098 3097 3097 3097 3096 3096 3096 3096 3096 3095 3095 3095 3095 3095 3095 3096 3096 3097 3097 3098 3099 3099 3098 3098 3099 3099 3099 3098 3098 3099 3099 3100 3100 3101 3101 3102 3103 3104 3105 3105 3105 3106 3106 3107 3107 3108 3109 3109 3110 3110 3110 3110 3110 3110 3111 3112 3114 3115 3115 3116 3116 3117 3117 3116 3116 3115 3115 3116 3116 3117 3117 3118 3119 3120 3120 3121 3123 3124 3125 3126
3100 3100 3099 3099 3099 3099 3098 3098 3097 3097 3097 3096 3096 3096 3096 3095 3095 3095 3095 3095 3095 3096 3096 3096 3097 3097 3098 3098 3098 3099 3099 3099 3099 3099 3099 3099 3099 3100 3101 3101 3102 3102 3103 3103 3104 3104 3105 3105 3106 3106 3106 3107 3107 3107 3108 3108 3109 3109 3109 3109 3110 3111 3111 3112 3113 3114 3114 3115 3115 3116 3115 3115 3115 3113 3112 3114 3115 3115 3116 3117 3118 3118 3119 3120 3122 3123 3124 3125
3101 3100 3099 3099 3098 3098 3098 3098 3097 3097 3096 3096 3096 3095 3095 3095 3095 3095 3095 3095 3095 3096 3096 3096 3097 3097 3098 3098 3098 3098 3099 3099 3099 3099 3099 3100 3100 3100 3101 3102 3102 3103 3103 3104 3105 3105 3105 3105 3106 3106 3107 3107 3107 3107 3108 3108 3109 3109 3109 3109 3109 3110 3111 3112 3113 3113 3113 3114 3114 3114 3114 3113 3114 3113 3111 3112 3113 3114 3115 3116 3117 3117 3118 3119 3120 3122 3123 3124
3101 3100 3099 3099 3098 3098 3098 3097 3097 3096 3096 3095 3095 3095 3095 3095 3095 3095 3095 3095 3095 3096 3096 3096 3097 3097 3098 3098 3097 3098 3098 3099 3099 3099 3099 3100 3100 3100 3100 3101 3102 3103 3103 3104 3104 3105 3105 3105 3106 3106 3106 3107 3107 3107 3107 3108 3108 3108 3108 3108 3109 3109 3110 3111 3111 3112 3112 3112 3112 3113 3113 3112 3112 3112 3110 3110 3111 3113 3114 3115 3115 3116 3117 3117 3119 3120 3121 3122
3101 3100 3100 3099 3098 3098 3097 3097 3097 3096 3096 3095 3095 3095 3095 3095 3095 3095 3095 3095 3095 3095 3096 3096 3096 3097 3097 3097 3097 3098 3098 3098 3099 3099 3099 3100 3100 3100 3100 3101 3102 3103 3103 3103 3104 3104 3105 3104 3105 3105 3105 3106 3106 3106 3107 3108 3108 3108 3108 3108 3108 3109 3109 3109 3110 3110 3110 3110 3110 3111 3111 3110 3111 3112 3111 3110 3110 3111 3112 3113 3114 3115 3115 3116 3117 3118 3119 3120
3101 3101 3100 3099 3099 3098 3097 3097 3096 3096 3095 3095 3095 3095 3095 3095 3095 3095 3095 3095 3095 3095 3095 3095 3096 3096 3097 3097 3097 3097 3097 3098 3099 3099 3099 3100 3100 3101 3101 3101 3102 3102 3103 3103 3103 3104 3104 3104 3104 3104 3104 3105 3105 3106 3107 3107 3107 3107 3107 3107 3107 3108 3108 3108 3109 3109 3109 3109 3109 3109 3109 3108 3110 3111 3111 3110 3109 3110 3111 3111 3112 3113 3113 3113 3114 3116 3117 3119
3101 3101 3100 3099 3099 3098 3098 3097 3096 3096 3095 3095 3095 3095 3095 3095 3095 3095 3094 3094 3095 3095 3095 3095 3096 3096 3097 3097 3097 3097 3097 3097 3098 3099 3099 3099 3100 3100 3101 3101 3101 3101 3102 3102 3103 3103 3103 3103 3103 3103 3104 3104 3104 3105 3106 3106 3106 3106 3106 3107 3107 3107 3107 3108 3108 3108 3107 3107 3107 3107 3107 3107 3108 3110 3110 3109 3108 3109 3110 3110 3110 3111 3112 3112 3113 3115 3116 3117
3101 3101 3100 3099 3099 3098 3098 3097 3096 3096 3095 3095 3095 3095 3095 3094 3094 3094 3094 3094 3094 3094 3095 3095 3095 3096 3096 3097 3097 3097 3097 3096 3097 3098 3098 3099 3099 3099 3100 3100 3100 3101 3101 3102 3102 3102 3102 3102 3102 3102 3103 3104 3104 3105 3105 3106 3106 3106 3106 3106 3107 3107 3107 3107 3107 3107 3106 3105 3105 3105 3105 3105 3107 3108 3109 3109 3109 3109 3109 3109 3109 3109 3110 3111 3113 3114 3115 3116
3101 3101 3100 3100 3099 3098 3098 3097 3097 3096 3095 3095 3095 3095 3094 3094 3093 3093 3093 3093 3093 3094 3094 3094 3095 3095 3096 3097 3097 3097 3097 3096 3096 3097 3098 3098 3099 3099 3099 3099 3099 3100 3100 3101 3101 3101 3101 3101 3101 3102 3103 3103 3104 3104 3104 3105 3105 3105 3106 3106 3106 3106 3106 3107 3107 3106 3105 3105 3103 3103 3103 3103 3105 3107 3108 3108 3108 3108 3108 3108 3108 3109 3109 3111 3112 3114 3114 3115
3101 3101 3100 3100 3099 3099 3098 3097 3097 3096 3096 3095 3095 3095 3094 3094 3093 3092 3092 3092 3092 3093 3094 3094 3095 3096 3096 3097 3096 3096 3097 3097 3097 3097 3097 3098 3099 3099 3099 3099 3099 3099 3100 3100 3101 3101 3101 3100 3100 3102 3102 3103 3103 3103 3104 3104 3104 3105 3105 3106 3106 3106 3106 3106 3106 3106 3106 3105 3104 3103 3103 3103 3104 3105 3107 3107 3108 3108 3107 3107 3108 3108 3109 3110 3111 3113 3113 3114
3102 3101 3100 3100 3099 3099 3098 3098 3097 3096 3096 3095 3095 3095 3094 3094 3093 3092 3092 3092 3092 3092 3093 3094 3095 3095 3096 3096 3096 3096 3096 3097 3097 3097 3097 3098 3098 3099 3098 3098 3098 3098 3099 3100 3100 3101 3100 3100 3100 3101 3102 3102 3102 3103 3103 3103 3104 3104 3105 3105 3105 3105 3105 3105 3105 3106 3106 3105 3104 3103 3103 3103 3104 3104 3105 3106 3106 3107 3106 3106 3107 3107 3108 3108 3109 3110 3110 3111
3102 3101 3101 3100 3099 3099 3098 3098 3097 3097 3096 3096 3096 3095 3095 3094 3093 3092 3092 3092 3092 3092 3092 3093 3094 3095 3096 3096 3096 3096 3096 3096 3096 3096 3097 3097 3098 3098 3098 3098 3098 3098 3099 3099 3100 3100 3099 3099 3100 3100 3101 3101 3101 3102 3102 3102 3103 3103 3103 3104 3104 3104 3104 3104 3104 3104 3104 3104 3103 3103 3103 3102 3103 3104 3104 3105 3105 3105 3106 3106 3106 3107 3107 3107 3106 3106 3106 3107
3102 3101 3101 3100 3100 3099 3099 3098 3098 3097 3097 3096 3096 3095 3095 3094 3093 3093 3092 3092 3092 3092 3093 3093 3094 3095 3096 3096 3095 3096 3096 3096 3096 3096 3096 3097 3098 3098 3098 3098 3098 3098 3098 3099 3099 3098 3098 3099 3099 3099 3099 3100 3100 3100 3101 3101 3102 3102 3102 3103 3103 3103 3103 3102 3102 3102 3102 3102 3102 3103 3102 3101 3101 3102 3103 3103 3103 3104 3105 3105 3105 3106 3105 3105 3104 3104 3103 3104
3102 3101 3100 3100 3099 3099 3099 3098 3098 3098 3097 3097 3096 3096 3095 3095 3094 3093 3092 3092 3092 3093 3093 3094 3094 3095 3095 3095 3095 3095 3095 3095 3095 3096 3096 3097 3097 3097 3097 3097 3097 3097 3098 3098 3098 3097 3097 3098 3098 3098 3098 3098 3098 3099 3099 3100 3101 3101 3101 3102 3102 3102 3101 3101 3101 3101 3101 3100 3100 3101 3101 3100 3099 3100 3101 3101 3101 3101 3102 3103 3103 3104 3103 3102 3101 3101 3100 3100
3101 3101 3100 3100 3099 3099 3099 3098 3098 3098 3097 3097 3096 3096 3095 3095 3094 3093 3093 3093 3093 3093 3094 3094 3094 3094 3095 3095 3095 3095 3095 3094 3094 3095 3096 3096 3096 3096 3096 3096 3096 3096 3097 3097 3096 3096 3096 3097 3097 3097 3097 3097 3097 3097 3098 3099 3100 3100 3100 3101 3101 3100 3100 3100 3100 3100 3099 3099 3099 3099 3100 3099 3098 3098 3099 3099 3099 3099 3099 3099 3100 3100 3100 3099 3098 3097 3097 3097
3101 3101 3100 3100 3099 3099 3098 3098 3098 3098 3097 3097 3096 3096 3095 3095 3094 3093 3094 3094 3094 3093 3094 3094 3094 3094 3095 3094 3094 3094 3094 3094 3094 3095 3095 3096 3095 3095 3095 3095 3095 3095 3096 3095 3095 3095 3096 3096 3097 3096 3096 3095 3095 3096 3097 3098 3099 3099 3099 3099 3099 3099 3099 3099 3099 3099 3098 3098 3098 3098 3099 3098 3097 3097 3098 3098 3096 3096 3096 3096 3097 3096 3096 3096 3094 3094 3094 3095
3101 3100 3100 3099 3099 3099 3098 3098 3097 3097 3097 3097 3096 3096 3096 3095 3094 3093 3094 3094 3093 3093 3093 3094 3094 3094 3094 3094 3094 3094 3094 3094 3094 3094 3095 3095 3094 3094 3094 3094 3095 3094 3094 3094 3093 3094 3095 3095 3096 3095 3095 3095 3095 3095 3096 3097 3098 3098 3098 3098 3097 3098 3097 3098 3098 3098 3097 3097 3097 3097 3097 3097 3096 3096 3097 3096 3095 3094 3094 3094 3093 3093 3093 3092 3091 3090 3091 3092
3100 3100 3099 3099 3099 3098 3098 3097 3097 3097 3097 3097 3096 3096 3096 3095 3094 3094 3094 3094 3093 3093 3093 3093 3094 3094 3094 3094 3094 3094 3094 3094 3094 3094 3094 3094 3094 3094 3093 3093 3094 3093 3093 3092 3092 3092 3093 3094 3094 3094 3094 3094 3095 3095 3096 3096 3096 3096 3096 3096 3096 3096 3096 3096 3096 3096 3096 3095 3094 3095 3095 3095 3095 3094 3095 3095 3094 3093 3092 3092 3091 3090 3089 3088 3087 3087 3088 3090
3100 3099 3099 3099 3098 3098 3097 3097 3097 3097 3097 3096 3096 3096 3096 3095 3094 3094 3094 3094 3093 3093 3093 3093 3094 3094 3093 3093 3093 3093 3093 3093 3093 3093 3093 3093 3093 3093 3093 3093 3093 3092 3092 3091 3090 3091 3091 3092 3092 3093 3093 3094 3094 3094 3095 3095 3095 3095 3095 3095 3095 3095 3095 3095 3095 3095 3095 3093 3092 3092 3092 3093 3093 3092 3093 3093 3092 3091 3091 3090 3088 3087 3086 3085 3084 3084 3084 3087
3100 3099 3099 3098 3098 3097 3097 3097 3097 3096 3096 3096 3096 3096 3095 3095 3095 3094 3094 3093 3093 3093 3093 3093 3093 3093 3093 3093 3092 3092 3092 3092 3092 3092 3092 3092 3092 3092 3092 3092 3092 3092 3091 3090 3090 3090 3090 3090 3090 3091 3092 3092 3093 3093 3093 3093 3093 3093 3093 3094 3094 3094 3095 3095 3093 3093 3093 3091 3090 3091 3091 3091 3090 3090 3091 3091 3090 3090 3089 3089 3087 3085 3085 3084 3083 3082 3082 3084
3100 3099 3099 3098 3098 3097 3097 3096 3096 3096 3096 3095 3095 3095 3095 3095 3095 3094 3094 3094 3094 3093 3093 3093 3093 3093 3093 3092 3092 3092 3092 3091 3090 3090 3090 3090 3090 3090 3090 3091 3091 3091 3090 3090 3090 3089 3089 3089 3089 3089 3090 3090 3091 3091 3091 3091 3091 3091 3091 3091 3092 3093 3096 3095 3094 3093 3092 3089 3089 3089 3090 3089 3088 3089 3089 3089 3089 3088 3088 3087 3086 3085 3084 3083 3082 3081 3081 3083
3099 3099 3098 3098 3097 3097 3097 3096 3096 3095 3095 3095 3095 3095 3094 3094 3094 3094 3094 3093 3093 3093 3093 3092 3092 3092 3092 3091 3091 3091 3091 3090 3089 3089 3089 3089 3089 3089 3089 3090 3090 3090 3090 3089 3089 3089 3088 3088 3088 3088 3088 3088 3089 3089 3090 3090 3090 3090 3090 3090 3090 3090 3092 3092 3091 3090 3089 3087 3088 3088 3088 3087 3087 3088 3088 3087 3087 3087 3086 3085 3085 3085 3084 3084 3083 3082 3081 3082
3099 3098 3098 3098 3097 3097 3096 3096 3096 3095 3095 3094 3094 3094 3094 3094 3094 3094 3093 3093 3092 3092 3092 3092 3091 3091 3091 3090 3090 3090 3090 3089 3089 3088 3087 3087 3088 3088 3088 3089 3089 3088 3088 3088 3088 3088 3087 3087 3087 3087 3087 3087 3088 3088 3088 3088 3088 3088 3088 3088 3088 3088 3088 3088 3087 3087 3087 3087 3087 3087 3087 3087 3087 3088 3087 3087 3086 3086 3085 3084 3083 3083 3084 3084 3083 3083 3082 3082
3099 3098 3098 3097 3097 3096 3096 3096 3095 3095 3094 3094 3093 3093 3093 3093 3093 3093 3092 3092 3092 3091 3091 3091 3090 3090 3089 3089 3089 3089 3089 3088 3088 3087 3087 3087 3087 3087 3088 3087 3087 3087 3087 3087 3086 3086 3086 3085 3085 3086 3086 3086 3087 3086 3087 3087 3087 3087 3087 3087 3087 3087 3087 3086 3086 3086 3086 3087 3086 3085 3085 3086 3087 3087 3087 3086 3085 3084 3084 3083 3082 3082 3082 3083 3083 3083 3083 3082
3098 3097 3097 3096 3096 3096 3095 3095 3095 3094 3093 3093 3093 3092 3092 3092 3092 3092 3092 3092 3091 3090 3090 3090 3089 3089 3088 3088 3087 3087 3088 3088 3087 3087 3087 3087 3087 3086 3086 3086 3086 3086 3086 3085 3085 3084 3084 3084 3083 3084 3084 3085 3085 3085 3085 3085 3085 3085 3086 3086 3086 3085 3085 3085 3084 3085 3087 3088 3085 3083 3084 3084 3085 3085 3085 3085 3084 3083 3083 3082 3082 3081 3081 3082 3083 3083 3083 3083
3097 3096 3095 3095 3094 3094 3094 3094 3094 3093 3092 3092 3092 3092 3092 3092 3092 3091 3091 3091 3090 3090 3089 3089 3089 3088 3088 3087 3087 3086 3086 3086 3086 3086 3086 3086 3086 3085 3085 3085 3084 3084 3084 3084 3083 3083 3083 3082 3082 3083 3083 3083 3084 3084 3084 3083 3083 3083 3084 3084 3084 3084 3084 3083 3084 3084 3086 3087 3085 3082 3081 3082 3082 3082 3083 3083 3083 3082 3082 3081 3081 3081 3081 3082 3082 3083 3083 3083
3096 3095 3094 3093 3093 3093 3093 3093 3092 3092 3091 3091 3091 3091 3090 3091 3090 3090 3089 3089 3089 3089 3088 3088 3088 3088 3087 3087 3086 3086 3085 3085 3085 3085 3086 3085 3085 3084 3084 3083 3083 3083 3082 3082 3082 3082 3082 3081 3080 3080 3081 3082 3082 3082 3082 3082 3082 3082 3082 3083 3083 3083 3083 3083 3084 3083 3083 3084 3084 3081 3080 3079 3078 3079 3080 3081 3081 3080 3080 3081 3081 3081 3081 3081 3082 3082 3083 3083
3094 3093 3092 3092 3092 3092 3092 3091 3091 3090 3090 3090 3089 3089 3089 3089 3089 3088 3088 3088 3088 3088 3087 3087 3087 3086 3086 3086 3085 3085 3085 3084 3084 3085 3085 3084 3084 3083 3083 3081 3081 3081 3081 3081 3081 3081 3081 3080 3079 3079 3079 3080 3080 3080 3080 3080 3080 3081 3081 3081 3081 3082 3083 3082 3082 3082 3081 3082 3082 3081 3079 3077 3077 3078 3079 3079 3079 3079 3079 3080 3080 3080 3080 3081 3081 3082 3082 3082
3092 3091 3091 3091 3091 3091 3090 3090 3089 3089 3089 3088 3088 3088 3088 3088 3087 3087 3087 3087 3087 3086 3086 3085 3085 3085 3084 3084 3084 3084 3084 3084 3083 3083 3083 3083 3083 3082 3081 3080 3080 3079 3079 3080 3080 3080 3079 3078 3078 3077 3077 3078 3078 3077 3078 3078 3078 3079 3079 3080 3080 3080 3081 3082 3081 3080 3080 3080 3080 3079 3078 3076 3076 3077 3077 3078 3078 3078 3078 3079 3079 3079 3079 3080 3080 3080 3080 3080
3090 3090 3089 3089 3089 3089 3089 3088 3087 3087 3087 3087 3087 3087 3087 3086 3086 3086 3085 3085 3085 3085 3084 3083 3083 3083 3082 3082 3082 3082 3082 3082 3082 3082 3082 3081 3081 3080 3079 3079 3079 3078 3078 3078 3078 3078 3077 3076 3075 3075 3075 3076 3076 3076 3076 3076 3076 3077 3077 3077 3078 3079 3079 3080 3080 3079 3078 3078 3077 3077 3077 3076 3075 3076 3076 3077 3077 3077 3077 3077 3077 3078 3078 3078 3078 3078 3078 3078
3089 3088 3088 3087 3087 3087 3087 3087 3086 3085 3085 3085 3085 3085 3085 3085 3084 3084 3084 3084 3083 3082 3082 3082 3081 3081 3081 3080 3081 3080 3080 3080 3080 3080 3080 3080 3079 3078 3077 3078 3078 3077 3077 3076 3076 3076 3075 3074 3073 3073 3073 3073 3074 3074 3075 3075 3075 3075 3074 3074 3076 3076 3076 3077 3077 3077 3077 3075 3075 3076 3075 3074 3074 3074 3074 3075 3075 3076 3076 3076 3076 3076 3075 3075 3076 3076 3077 3077
3087 3087 3086 3085 3085 3085 3085 3084 3084 3084 3084 3083 3083 3083 3083 3083 3082 3082 3081 3082 3081 3080 3080 3079 3079 3079 3079 3078 3078 3078 3078 3078 3077 3077 3078 3077 3077 3076 3075 3076 3076 3075 3075 3075 3074 3074 3074 3073 3072 3072 3072 3071 3072 3073 3073 3073 3073 3073 3073 3073 3073 3074 3075 3075 3075 3075 3074 3072 3073 3074 3072 3071 3072 3072 3072 3073 3073 3074 3074 3074 3074 3073 3073 3073 3074 3074 3075 3075
3085 3085 3084 3083 3083 3083 3083 3082 3082 3081 3081 3081 3081 3081 3081 3080 3080 3079 3079 3079 3079 3077 3077 3077 3076 3076 3076 3076 3076 3076 3076 3075 3075 3075 3075 3075 3075 3074 3073 3073 3073 3073 3073 3073 3073 3072 3072 3071 3071 3071 3070 3070 3071 3070 3070 3070 3071 3071 3071 3071 3072 3073 3073 3073 3073 3073 3072 3071 3071 3070 3070 3070 3071 3070 3070 3071 3071 3072 3072 3072 3070 3070 3070 3070 3071 3071 3072 3072
3082 3082 3082 3081 3081 3080 3080 3079 3079 3079 3078 3078 3078 3078 3078 3078 3077 3077 3076 3076 3075 3075 3074 3074 3074 3074 3073 3073 3073 3073 3073 3072 3072 3072 3072 3072 3072 3072 3072 3071 3071 3071 3071 3071 3071 3071 3070 3069 3069 3068 3068 3068 3068 3068 3068 3068 3068 3068 3069 3069 3069 3071 3071 3071 3071 3071 3070 3070 3068 3067 3069 3070 3069 3069 3069 3069 3070 3070 3070 3069 3068 3067 3067 3067 3067 3068 3068 3068
3080 3080 3080 3079 3079 3078 3077 3077 3076 3076 3075 3075 3075 3075 3075 3075 3074 3074 3073 3072 3072 3072 3072 3071 3071 3071 3070 3070 3071 3070 3070 3070 3070 3070 3069 3069 3070 3070 3070 3070 3069 3069 3069 3069 3069 3069 3068 3067 3067 3066 3066 3065 3065 3065 3066 3066 3065 3065 3066 3067 3067 3068 3068 3068 3068 3068 3069 3068 3064 3064 3067 3067 3065 3066 3066 3067 3068 3067 3066 3066 3065 3065 3065 3064 3064 3064 3065 3065
3077 3077 3076 3077 3076 3076 3075 3074 3074 3074 3073 3072 3072 3072 3072 3072 3072 3071 3071 3070 3069 3070 3070 3069 3068 3069 3068 3068 3068 3068 3067 3068 3068 3068 3067 3067 3067 3067 3068 3068 3068 3067 3068 3068 3067 3067 3066 3065 3065 3064 3063 3063 3063 3063 3063 3063 3062 3062 3063 3064 3065 3065 3065 3064 3064 3065 3066 3064 3061 3062 3064 3062 3061 3062 3063 3063 3064 3062 3062 3062 3062 3062 3062 3061 3061 3061 3061 3062
3074 3074 3073 3073 3073 3072 3072 3072 3071 3071 3070 3070 3070 3069 3069 3069 3069 3069 3068 3068 3067 3067 3068 3068 3067 3067 3066 3066 3066 3066 3065 3066 3066 3066 3065 3065 3065 3064 3065 3066 3065 3065 3066 3065 3065 3065 3064 3063 3063 3062 3060 3060 3060 3060 3060 3060 3059 3059 3060 3060 3061 3062 3062 3062 3061 3061 3062 3060 3058 3059 3059 3058 3058 3058 3058 3059 3059 3059 3059 3059 3059 3059 3059 3058 3058 3058 3058 3059
3072 3071 3071 3070 3070 3069 3069 3069 3068 3068 3067 3067 3067 3067 3066 3066 3066 3066 3066 3065 3065 3065 3065 3065 3065 3065 3065 3064 3064 3064 3063 3063 3064 3063 3063 3063 3062 3062 3062 3062 3062 3063 3063 3063 3063 3063 3062 3061 3060 3060 3058 3056 3057 3058 3058 3057 3056 3055 3055 3057 3058 3058 3059 3059 3058 3058 3058 3056 3056 3056 3054 3053 3054 3055 3054 3055 3056 3055 3056 3056 3056 3056 3055 3055 3055 3055 3055 3055
3069 3069 3068 3068 3067 3067 3066 3066 3065 3065 3064 3064 3064 3064 3063 3063 3063 3064 3064 3063 3063 3063 3062 3062 3063 3062 3063 3062 3062 3062 3062 3062 3061 3061 3060 3060 3060 3060 3060 3059 3059 3059 3059 3060 3060 3060 3059 3058 3058 3058 3056 3052 3053 3056 3055 3054 3053 3050 3050 3052 3053 3055 3055 3055 3055 3055 3054 3053 3053 3052 3051 3050 3051 3051 3051 3051 3052 3052 3052 3053 3053 3053 3052 3052 3052 3052 3052 3052
3066 3065 3065 3065 3065 3064 3064 3063 3062 3062 3062 3062 3062 3062 3061 3061 3061 3062 3062 3062 3061 3061 3060 3060 3060 3060 3060 3060 3059 3059 3059 3059 3059 3058 3058 3057 3057 3057 3057 3056 3056 3056 3055 3056 3056 3056 3056 3055 3055 3056 3053 3048 3050 3052 3052 3052 3050 3044 3044 3047 3049 3050 3051 3050 3051 3051 3050 3050 3049 3048 3048 3048 3048 3048 3048 3048 3049 3049 3050 3050 3050 3050 3050 3050 3049 3049 3049 3049